Time,TemperatureF,DewpointF,PressureIn,WindDirection,WindDirectionDegrees,WindSpeedMPH,WindSpeedGustMPH,Humidity,HourlyPrecipIn,Conditions,Clouds,dailyrainin,SoftwareType,DateUTC
2013-02-27 00:00:00,35.1,31.3,29.22,NNW,344,0.0,0.0,86,0.01,,,0.00,WeatherDisplay:10.37,2013-02-27 09:00:00,
2013-02-27 00:05:00,34.7,31.2,29.22,NNW,345,0.0,0.0,87,0.01,RA,,0.00,WeatherDisplay:10.37,2013-02-27 09:05:00,
2013-02-27 00:10:00,34.5,31.3,29.22,NNW,345,0.0,0.0,88,0.01,CLR,,0.00,WeatherDisplay:10.37,2013-02-27 09:10:00,
2013-02-27 00:15:00,34.4,31.2,29.21,NNW,344,0.0,0.0,88,0.02,RA,,0.01,WeatherDisplay:10.37,2013-02-27 09:15:00,
2013-02-27 00:20:00,34.4,31.2,29.21,NNW,345,0.0,0.0,88,0.02,RA,,0.01,WeatherDisplay:10.37,2013-02-27 09:20:00,
2013-02-27 00:25:00,34.4,31.2,29.21,NNW,345,0.0,0.0,88,0.02,CLR,,0.01,WeatherDisplay:10.37,2013-02-27 09:25:00,
2013-02-27 00:30:00,34.4,30.9,29.20,NNW,345,0.0,0.0,87,0.02,CLR,,0.01,WeatherDisplay:10.37,2013-02-27 09:30:00,
2013-02-27 00:35:00,34.9,30.8,29.20,NNW,345,0.0,0.0,85,0.02,CLR,,0.01,WeatherDisplay:10.37,2013-02-27 09:35:00,
2013-02-27 00:40:00,35.4,31.0,29.20,NNW,345,0.0,0.0,84,0.02,CLR,,0.01,WeatherDisplay:10.37,2013-02-27 09:40:00,
2013-02-27 00:45:00,35.7,31.3,29.20,NNW,344,0.0,0.0,84,0.02,CLR,,0.01,WeatherDisplay:10.37,2013-02-27 09:45:00,
2013-02-27 00:50:00,35.6,31.2,29.20,NNW,345,0.0,0.0,84,0.02,CLR,,0.01,WeatherDisplay:10.37,2013-02-27 09:50:00,
2013-02-27 00:55:00,35.7,31.3,29.20,NNW,344,0.0,0.0,84,0.02,CLR,,0.01,WeatherDisplay:10.37,2013-02-27 09:55:00,
2013-02-27 01:00:00,35.6,30.9,29.20,NNW,344,0.0,0.0,83,0.01,CLR,,0.01,WeatherDisplay:10.37,2013-02-27 10:00:00,
2013-02-27 01:05:00,36.1,30.5,29.20,NNW,345,0.0,0.0,80,0.01,CLR,,0.01,WeatherDisplay:10.37,2013-02-27 10:05:00,
2013-02-27 01:10:00,36.4,30.8,29.19,NNW,345,0.0,0.0,80,0.01,CLR,,0.01,WeatherDisplay:10.37,2013-02-27 10:10:00,
2013-02-27 01:15:00,36.5,30.6,29.19,NNW,344,0.0,0.0,79,0.00,CLR,,0.01,WeatherDisplay:10.37,2013-02-27 10:15:00,
2013-02-27 01:20:00,36.6,30.1,29.18,NNW,343,0.0,0.0,77,0.00,CLR,,0.01,WeatherDisplay:10.37,2013-02-27 10:20:00,
2013-02-27 01:25:00,37.1,29.9,29.18,NNW,344,0.0,0.0,75,0.00,CLR,,0.01,WeatherDisplay:10.37,2013-02-27 10:25:00,
2013-02-27 01:30:00,37.5,30.0,29.18,NNW,343,0.0,0.0,74,0.00,CLR,,0.01,WeatherDisplay:10.37,2013-02-27 10:30:00,
2013-02-27 01:35:00,37.5,29.6,29.17,NNW,344,0.0,0.0,73,0.00,CLR,,0.01,WeatherDisplay:10.37,2013-02-27 10:35:00,
2013-02-27 01:40:00,37.3,30.7,29.17,NNW,344,0.0,0.0,77,0.00,CLR,,0.01,WeatherDisplay:10.37,2013-02-27 10:40:00,
2013-02-27 01:45:00,36.5,30.6,29.17,NNW,344,0.0,0.0,79,0.00,CLR,,0.01,WeatherDisplay:10.37,2013-02-27 10:45:00,
2013-02-27 01:50:00,35.7,30.4,29.17,NNW,343,0.0,0.0,81,0.00,CLR,,0.01,WeatherDisplay:10.37,2013-02-27 10:50:00,
2013-02-27 01:55:00,35.9,29.7,29.17,NNW,343,0.0,0.0,78,0.00,CLR,,0.01,WeatherDisplay:10.37,2013-02-27 10:55:00,
2013-02-27 02:00:00,36.3,30.1,29.17,NNW,343,0.0,0.0,78,0.00,CLR,,0.01,WeatherDisplay:10.37,2013-02-27 11:00:00,
2013-02-27 02:05:00,36.6,29.7,29.17,NNW,342,0.0,0.0,76,0.00,CLR,,0.01,WeatherDisplay:10.37,2013-02-27 11:05:00,
2013-02-27 02:10:00,36.9,29.7,29.17,NNW,340,0.0,0.0,75,0.00,CLR,,0.01,WeatherDisplay:10.37,2013-02-27 11:10:00,
2013-02-27 02:15:00,37.1,29.9,29.16,NNW,342,0.0,0.0,75,0.00,CLR,,0.01,WeatherDisplay:10.37,2013-02-27 11:15:00,
2013-02-27 02:20:00,36.9,30.0,29.16,NNW,341,0.0,0.0,76,0.00,CLR,,0.01,WeatherDisplay:10.37,2013-02-27 11:20:00,
2013-02-27 02:25:00,36.9,29.7,29.16,NNW,341,0.0,0.0,75,0.00,CLR,,0.01,WeatherDisplay:10.37,2013-02-27 11:25:00,
2013-02-27 02:30:00,37.1,29.6,29.16,NNW,341,0.0,0.0,74,0.00,CLR,,0.01,WeatherDisplay:10.37,2013-02-27 11:30:00,
2013-02-27 02:35:00,37.1,29.6,29.16,NNW,341,0.0,0.0,74,0.00,CLR,,0.01,WeatherDisplay:10.37,2013-02-27 11:35:00,
2013-02-27 02:40:00,37.1,29.9,29.15,NNW,341,0.0,0.0,75,0.00,CLR,,0.01,WeatherDisplay:10.37,2013-02-27 11:40:00,
2013-02-27 02:45:00,37.1,29.9,29.15,NNW,341,0.0,0.0,75,0.00,CLR,,0.01,WeatherDisplay:10.37,2013-02-27 11:45:00,
2013-02-27 02:50:00,37.0,30.1,29.16,NNW,342,0.0,0.0,76,0.00,CLR,,0.01,WeatherDisplay:10.37,2013-02-27 11:50:00,
2013-02-27 02:55:00,36.7,30.2,29.16,NNW,342,0.0,0.0,77,0.00,CLR,,0.01,WeatherDisplay:10.37,2013-02-27 11:55:00,
2013-02-27 03:00:00,36.6,30.4,29.15,NNW,340,0.0,0.0,78,0.00,CLR,,0.01,WeatherDisplay:10.37,2013-02-27 12:00:00,
2013-02-27 03:05:00,36.3,30.4,29.15,NNW,341,0.0,0.0,79,0.00,CLR,,0.01,WeatherDisplay:10.37,2013-02-27 12:05:00,
2013-02-27 03:10:00,36.2,30.3,29.15,NNW,340,0.0,0.0,79,0.00,CLR,,0.01,WeatherDisplay:10.37,2013-02-27 12:10:00,
2013-02-27 03:15:00,36.1,30.2,29.15,NNW,341,0.0,0.0,79,0.00,CLR,,0.01,WeatherDisplay:10.37,2013-02-27 12:15:00,
2013-02-27 03:20:00,36.1,30.2,29.15,NNW,341,0.0,0.0,79,0.00,CLR,,0.01,WeatherDisplay:10.37,2013-02-27 12:20:00,
2013-02-27 03:25:00,36.1,30.2,29.15,NNW,341,0.0,0.0,79,0.00,CLR,,0.01,WeatherDisplay:10.37,2013-02-27 12:25:00,
2013-02-27 03:30:00,36.2,30.0,29.16,NNW,340,0.0,0.0,78,0.00,CLR,,0.01,WeatherDisplay:10.37,2013-02-27 12:30:00,
2013-02-27 03:35:00,36.4,29.9,29.16,NNW,340,0.0,0.0,77,0.00,CLR,,0.01,WeatherDisplay:10.37,2013-02-27 12:35:00,
2013-02-27 03:40:00,36.6,30.1,29.15,NNW,341,0.0,0.0,77,0.00,CLR,,0.01,WeatherDisplay:10.37,2013-02-27 12:40:00,
2013-02-27 03:45:00,36.4,29.9,29.16,NNW,340,0.0,0.0,77,0.00,CLR,,0.01,WeatherDisplay:10.37,2013-02-27 12:45:00,
2013-02-27 03:50:00,36.3,29.8,29.15,NNW,341,0.0,0.0,77,0.00,CLR,,0.01,WeatherDisplay:10.37,2013-02-27 12:50:00,
2013-02-27 03:55:00,36.2,29.7,29.15,NNW,340,0.0,0.0,77,0.00,CLR,,0.01,WeatherDisplay:10.37,2013-02-27 12:55:00,
2013-02-27 04:00:00,36.4,29.9,29.15,NNW,343,0.0,0.0,77,0.00,CLR,,0.01,WeatherDisplay:10.37,2013-02-27 13:00:00,
2013-02-27 04:05:00,36.4,29.9,29.15,NNW,341,0.0,0.0,77,0.00,CLR,,0.01,WeatherDisplay:10.37,2013-02-27 13:05:00,
2013-02-27 04:10:00,36.2,29.7,29.14,NNW,340,0.0,0.0,77,0.00,CLR,,0.01,WeatherDisplay:10.37,2013-02-27 13:10:00,
2013-02-27 04:15:00,36.0,29.8,29.14,NNW,341,0.0,0.0,78,0.00,CLR,,0.01,WeatherDisplay:10.37,2013-02-27 13:15:00,
2013-02-27 04:20:00,35.9,29.7,29.15,NNW,343,0.0,0.0,78,0.00,CLR,,0.01,WeatherDisplay:10.37,2013-02-27 13:20:00,
2013-02-27 04:25:00,36.2,29.7,29.15,NNW,343,0.0,0.0,77,0.00,CLR,,0.01,WeatherDisplay:10.37,2013-02-27 13:25:00,
2013-02-27 04:30:00,36.2,29.4,29.15,NNW,339,0.0,0.0,76,0.00,CLR,,0.01,WeatherDisplay:10.37,2013-02-27 13:30:00,
2013-02-27 04:35:00,36.3,29.1,29.14,NNW,339,0.0,0.0,75,0.00,CLR,,0.01,WeatherDisplay:10.37,2013-02-27 13:35:00,
2013-02-27 04:40:00,36.7,28.9,29.14,NNW,340,0.0,0.0,73,0.00,CLR,,0.01,WeatherDisplay:10.37,2013-02-27 13:40:00,
2013-02-27 04:45:00,36.9,28.7,29.14,NNW,341,0.0,0.0,72,0.00,CLR,,0.01,WeatherDisplay:10.37,2013-02-27 13:45:00,
2013-02-27 04:50:00,36.9,28.7,29.14,NNW,341,0.0,0.0,72,0.00,CLR,,0.01,WeatherDisplay:10.37,2013-02-27 13:50:00,
2013-02-27 04:55:00,37.1,28.6,29.14,NNW,342,0.0,0.0,71,0.00,CLR,,0.01,WeatherDisplay:10.37,2013-02-27 13:55:00,
2013-02-27 05:00:00,37.1,28.6,29.14,NNW,343,0.0,0.0,71,0.00,CLR,,0.01,WeatherDisplay:10.37,2013-02-27 14:00:00,
2013-02-27 05:05:00,37.0,28.5,29.14,NNW,343,0.0,0.0,71,0.00,CLR,,0.01,WeatherDisplay:10.37,2013-02-27 14:05:00,
2013-02-27 05:10:00,36.9,28.4,29.13,NNW,343,0.0,0.0,71,0.00,CLR,,0.01,WeatherDisplay:10.37,2013-02-27 14:10:00,
2013-02-27 05:15:00,37.0,28.5,29.13,NNW,343,0.0,0.0,71,0.00,CLR,,0.01,WeatherDisplay:10.37,2013-02-27 14:15:00,
2013-02-27 05:20:00,37.1,28.2,29.13,NNW,344,0.0,0.0,70,0.00,CLR,,0.01,WeatherDisplay:10.37,2013-02-27 14:20:00,
2013-02-27 05:25:00,37.1,28.2,29.13,NNW,343,0.0,0.0,70,0.00,CLR,,0.01,WeatherDisplay:10.37,2013-02-27 14:25:00,
2013-02-27 05:30:00,37.0,28.8,29.13,NNW,341,0.0,0.0,72,0.00,CLR,,0.01,WeatherDisplay:10.37,2013-02-27 14:30:00,
2013-02-27 05:35:00,36.5,29.0,29.13,NNW,341,0.0,0.0,74,0.00,CLR,,0.01,WeatherDisplay:10.37,2013-02-27 14:35:00,
2013-02-27 05:40:00,36.3,29.1,29.13,NNW,341,0.0,0.0,75,0.00,CLR,,0.01,WeatherDisplay:10.37,2013-02-27 14:40:00,
2013-02-27 05:45:00,36.3,28.8,29.12,NNW,340,0.0,0.0,74,0.00,CLR,,0.01,WeatherDisplay:10.37,2013-02-27 14:45:00,
2013-02-27 05:50:00,36.4,29.2,29.12,NNW,341,0.0,0.0,75,0.00,CLR,,0.01,WeatherDisplay:10.37,2013-02-27 14:50:00,
2013-02-27 05:55:00,36.3,29.5,29.13,NNW,342,0.0,0.0,76,0.00,CLR,,0.01,WeatherDisplay:10.37,2013-02-27 14:55:00,
2013-02-27 06:00:00,36.2,29.4,29.12,NNW,343,0.0,0.0,76,0.00,CLR,,0.01,WeatherDisplay:10.37,2013-02-27 15:00:00,
2013-02-27 06:05:00,36.1,29.3,29.12,NNW,343,0.0,0.0,76,0.00,CLR,,0.01,WeatherDisplay:10.37,2013-02-27 15:05:00,
2013-02-27 06:10:00,36.2,29.4,29.12,NNW,342,0.0,0.0,76,0.00,CLR,,0.01,WeatherDisplay:10.37,2013-02-27 15:10:00,
2013-02-27 06:15:00,36.1,29.3,29.12,NNW,342,0.0,0.0,76,0.00,CLR,,0.01,WeatherDisplay:10.37,2013-02-27 15:15:00,
2013-02-27 06:20:00,36.2,29.0,29.12,NNW,342,0.0,0.0,75,0.00,CLR,,0.01,WeatherDisplay:10.37,2013-02-27 15:20:00,
2013-02-27 06:25:00,36.3,29.1,29.11,NNW,342,0.0,0.0,75,0.00,CLR,,0.01,WeatherDisplay:10.37,2013-02-27 15:25:00,
2013-02-27 06:30:00,36.4,28.9,29.11,NNW,342,0.0,0.0,74,0.00,CLR,,0.01,WeatherDisplay:10.37,2013-02-27 15:30:00,
2013-02-27 06:35:00,36.5,28.7,29.11,NNW,343,0.0,0.0,73,0.00,CLR,,0.01,WeatherDisplay:10.37,2013-02-27 15:35:00,
2013-02-27 06:40:00,36.8,28.6,29.11,NNW,343,0.0,0.0,72,0.00,CLR,,0.01,WeatherDisplay:10.37,2013-02-27 15:40:00,
2013-02-27 06:45:00,36.9,29.4,29.11,NNW,343,0.0,0.0,74,0.00,CLR,,0.01,WeatherDisplay:10.37,2013-02-27 15:45:00,
2013-02-27 06:50:00,36.7,29.2,29.12,NNW,343,0.0,0.0,74,0.00,CLR,,0.01,WeatherDisplay:10.37,2013-02-27 15:50:00,
2013-02-27 06:55:00,36.4,29.6,29.12,NNW,343,0.0,0.0,76,0.00,CLR,,0.01,WeatherDisplay:10.37,2013-02-27 15:55:00,
2013-02-27 07:00:00,36.5,29.3,29.12,NNW,343,0.0,0.0,75,0.00,CLR,,0.01,WeatherDisplay:10.37,2013-02-27 16:00:00,
2013-02-27 07:05:00,36.3,29.5,29.12,NNW,343,0.0,0.0,76,0.00,CLR,,0.01,WeatherDisplay:10.37,2013-02-27 16:05:00,
2013-02-27 07:10:00,36.4,29.6,29.12,NNW,344,0.0,0.0,76,0.00,CLR,,0.01,WeatherDisplay:10.37,2013-02-27 16:10:00,
2013-02-27 07:15:00,36.1,30.2,29.12,NNW,343,0.0,0.0,79,0.00,CLR,,0.01,WeatherDisplay:10.37,2013-02-27 16:15:00,
2013-02-27 07:20:00,35.5,30.2,29.13,NNW,343,0.0,0.0,81,0.00,CLR,,0.01,WeatherDisplay:10.37,2013-02-27 16:20:00,
2013-02-27 07:25:00,35.0,30.4,29.13,NNW,343,0.0,0.0,83,0.00,CLR,,0.01,WeatherDisplay:10.37,2013-02-27 16:25:00,
2013-02-27 07:30:00,34.6,30.6,29.13,NNW,343,0.0,0.0,85,0.00,CLR,,0.01,WeatherDisplay:10.37,2013-02-27 16:30:00,
2013-02-27 07:35:00,34.4,30.6,29.13,NNW,343,0.0,0.0,86,0.00,CLR,,0.01,WeatherDisplay:10.37,2013-02-27 16:35:00,
2013-02-27 07:40:00,34.4,30.6,29.13,NNW,343,0.0,0.0,86,0.00,CLR,,0.01,WeatherDisplay:10.37,2013-02-27 16:40:00,
2013-02-27 07:45:00,34.2,30.7,29.13,NNW,343,0.0,0.0,87,0.00,CLR,,0.01,WeatherDisplay:10.37,2013-02-27 16:45:00,
2013-02-27 07:50:00,34.1,30.6,29.13,NNW,343,0.0,0.0,87,0.00,CLR,,0.01,WeatherDisplay:10.37,2013-02-27 16:50:00,
2013-02-27 07:55:00,34.0,30.8,29.13,NNW,343,0.0,0.0,88,0.00,CLR,,0.01,WeatherDisplay:10.37,2013-02-27 16:55:00,
2013-02-27 08:00:00,33.8,30.6,29.13,NNW,344,0.0,0.0,88,0.00,CLR,,0.01,WeatherDisplay:10.37,2013-02-27 17:00:00,
2013-02-27 08:05:00,33.7,30.5,29.13,NNW,343,0.0,0.0,88,0.00,CLR,,0.02,WeatherDisplay:10.37,2013-02-27 17:05:00,
2013-02-27 08:10:00,33.5,30.6,29.13,NNW,343,0.0,0.0,89,0.01,RA,,0.02,WeatherDisplay:10.37,2013-02-27 17:10:00,
2013-02-27 08:15:00,33.4,30.5,29.13,NNW,344,0.0,0.0,89,0.01,RA,,0.02,WeatherDisplay:10.37,2013-02-27 17:15:00,
2013-02-27 08:20:00,33.3,30.7,29.13,NNW,343,0.0,0.0,90,0.01,CLR,,0.02,WeatherDisplay:10.37,2013-02-27 17:20:00,
2013-02-27 08:25:00,33.3,30.7,29.13,NNW,343,0.0,0.0,90,0.01,CLR,,0.02,WeatherDisplay:10.37,2013-02-27 17:25:00,
2013-02-27 08:30:00,33.2,30.6,29.13,NNW,343,0.0,0.0,90,0.01,CLR,,0.02,WeatherDisplay:10.37,2013-02-27 17:30:00,
2013-02-27 08:35:00,33.2,30.6,29.14,NNW,343,0.0,0.0,90,0.01,CLR,,0.02,WeatherDisplay:10.37,2013-02-27 17:35:00,
2013-02-27 08:40:00,33.2,30.6,29.14,NNW,343,0.0,0.0,90,0.01,CLR,,0.02,WeatherDisplay:10.37,2013-02-27 17:40:00,
2013-02-27 08:45:00,33.2,30.6,29.14,NNW,343,0.0,0.0,90,0.01,CLR,,0.02,WeatherDisplay:10.37,2013-02-27 17:45:00,
2013-02-27 08:50:00,33.2,30.6,29.14,NNW,343,0.0,0.0,90,0.02,RA,,0.03,WeatherDisplay:10.37,2013-02-27 17:50:00,
2013-02-27 08:55:00,33.2,30.6,29.14,NNW,344,0.0,0.0,90,0.02,RA,,0.03,WeatherDisplay:10.37,2013-02-27 17:55:00,
2013-02-27 09:00:00,33.3,30.7,29.15,NNW,343,0.0,0.0,90,0.02,CLR,,0.03,WeatherDisplay:10.37,2013-02-27 18:00:00,
2013-02-27 09:05:00,33.4,30.5,29.15,NNW,343,0.0,0.0,89,0.02,CLR,,0.03,WeatherDisplay:10.37,2013-02-27 18:05:00,
2013-02-27 09:10:00,33.4,30.5,29.15,NNW,343,0.0,0.0,89,0.01,CLR,,0.03,WeatherDisplay:10.37,2013-02-27 18:10:00,
2013-02-27 09:15:00,33.5,30.6,29.15,NNW,343,0.0,0.0,89,0.01,CLR,,0.03,WeatherDisplay:10.37,2013-02-27 18:15:00,
2013-02-27 09:20:00,33.5,30.6,29.15,NNW,343,0.0,0.0,89,0.01,CLR,,0.03,WeatherDisplay:10.37,2013-02-27 18:20:00,
2013-02-27 09:25:00,33.5,30.6,29.15,NNW,343,0.0,0.0,89,0.01,CLR,,0.03,WeatherDisplay:10.37,2013-02-27 18:25:00,
2013-02-27 09:30:00,33.5,30.6,29.15,NNW,343,0.0,0.0,89,0.02,RA,,0.04,WeatherDisplay:10.37,2013-02-27 18:30:00,
2013-02-27 09:35:00,33.5,30.6,29.15,NNW,343,0.0,0.0,89,0.02,RA,,0.04,WeatherDisplay:10.37,2013-02-27 18:35:00,
2013-02-27 09:40:00,33.7,30.8,29.15,NNW,343,0.0,0.0,89,0.02,,,0.04,WeatherDisplay:10.37,2013-02-27 18:40:00,
2013-02-27 09:45:00,33.7,30.8,29.16,NNW,343,0.0,0.0,89,0.02,CLR,,0.04,WeatherDisplay:10.37,2013-02-27 18:45:00,
2013-02-27 09:50:00,33.9,30.7,29.16,NNW,343,0.0,0.0,88,0.01,CLR,,0.04,WeatherDisplay:10.37,2013-02-27 18:50:00,
2013-02-27 09:55:00,34.0,31.1,29.16,NNW,343,0.0,0.0,89,0.01,CLR,,0.04,WeatherDisplay:10.37,2013-02-27 18:55:00,
2013-02-27 10:00:00,34.1,31.2,29.16,NNW,344,0.0,0.0,89,0.01,CLR,,0.04,WeatherDisplay:10.37,2013-02-27 19:00:00,
2013-02-27 10:05:00,34.1,31.5,29.16,NNW,343,0.0,0.0,90,0.02,RA,,0.05,WeatherDisplay:10.37,2013-02-27 19:05:00,
2013-02-27 10:10:00,34.1,31.5,29.17,NNW,343,0.0,0.0,90,0.02,RA,,0.05,WeatherDisplay:10.37,2013-02-27 19:10:00,
2013-02-27 10:15:00,33.9,31.3,29.17,NNW,343,0.0,0.0,90,0.02,,,0.05,WeatherDisplay:10.37,2013-02-27 19:15:00,
2013-02-27 10:20:00,33.8,31.2,29.17,NNW,344,0.0,0.0,90,0.02,CLR,,0.05,WeatherDisplay:10.37,2013-02-27 19:20:00,
2013-02-27 10:25:00,33.7,31.1,29.17,NNW,344,0.0,0.0,90,0.02,CLR,,0.05,WeatherDisplay:10.37,2013-02-27 19:25:00,
2013-02-27 10:30:00,33.7,31.1,29.17,NNW,343,0.0,0.0,90,0.01,CLR,,0.05,WeatherDisplay:10.37,2013-02-27 19:30:00,
2013-02-27 10:35:00,33.6,31.3,29.17,NNW,344,0.0,0.0,91,0.01,CLR,,0.05,WeatherDisplay:10.37,2013-02-27 19:35:00,
2013-02-27 10:40:00,33.6,31.3,29.17,NNW,343,0.0,0.0,91,0.01,CLR,,0.05,WeatherDisplay:10.37,2013-02-27 19:40:00,
2013-02-27 10:45:00,33.7,31.1,29.17,NNW,344,0.0,0.0,90,0.01,CLR,,0.05,WeatherDisplay:10.37,2013-02-27 19:45:00,
2013-02-27 10:50:00,33.8,30.9,29.18,NNW,343,0.0,0.0,89,0.01,CLR,,0.05,WeatherDisplay:10.37,2013-02-27 19:50:00,
2013-02-27 10:55:00,33.9,31.3,29.18,NNW,344,0.0,0.0,90,0.01,CLR,,0.05,WeatherDisplay:10.37,2013-02-27 19:55:00,
2013-02-27 11:00:00,34.1,31.5,29.18,NNW,344,0.0,0.0,90,0.01,CLR,,0.05,WeatherDisplay:10.37,2013-02-27 20:00:00,
2013-02-27 11:05:00,34.1,31.5,29.18,NNW,344,0.0,0.0,90,0.01,RA,,0.06,WeatherDisplay:10.37,2013-02-27 20:05:00,
2013-02-27 11:10:00,34.2,31.6,29.18,NNW,344,0.0,0.0,90,0.01,RA,,0.06,WeatherDisplay:10.37,2013-02-27 20:10:00,
2013-02-27 11:15:00,34.1,31.5,29.18,NNW,344,0.0,0.0,90,0.01,,,0.06,WeatherDisplay:10.37,2013-02-27 20:15:00,
2013-02-27 11:20:00,34.1,31.7,29.18,NNW,343,0.0,0.0,91,0.02,RA,,0.07,WeatherDisplay:10.37,2013-02-27 20:20:00,
2013-02-27 11:25:00,34.4,32.0,29.18,NNW,344,0.0,0.0,91,0.02,RA,,0.07,WeatherDisplay:10.37,2013-02-27 20:25:00,
2013-02-27 11:30:00,34.4,32.3,29.18,NNW,344,0.0,0.0,92,0.02,,,0.07,WeatherDisplay:10.37,2013-02-27 20:30:00,
2013-02-27 11:35:00,34.9,32.8,29.18,NNW,344,0.0,0.0,92,0.02,CLR,,0.07,WeatherDisplay:10.37,2013-02-27 20:35:00,
2013-02-27 11:40:00,35.1,32.7,29.19,NNW,344,0.0,0.0,91,0.02,CLR,,0.07,WeatherDisplay:10.37,2013-02-27 20:40:00,
2013-02-27 11:45:00,35.1,32.7,29.19,NNW,344,0.0,0.0,91,0.02,CLR,,0.07,WeatherDisplay:10.37,2013-02-27 20:45:00,
2013-02-27 11:50:00,35.0,32.4,29.19,NNW,344,0.0,0.0,90,0.02,CLR,,0.07,WeatherDisplay:10.37,2013-02-27 20:50:00,
2013-02-27 11:55:00,34.8,32.2,29.19,NNW,344,0.0,0.0,90,0.02,CLR,,0.07,WeatherDisplay:10.37,2013-02-27 20:55:00,
2013-02-27 12:00:00,34.7,32.1,29.19,NNW,344,0.0,0.0,90,0.02,CLR,,0.07,WeatherDisplay:10.37,2013-02-27 21:00:00,
2013-02-27 12:05:00,34.6,32.2,29.19,NNW,344,0.0,0.0,91,0.01,CLR,,0.07,WeatherDisplay:10.37,2013-02-27 21:05:00,
2013-02-27 12:10:00,34.7,32.3,29.19,NNW,344,0.0,0.0,91,0.01,CLR,,0.07,WeatherDisplay:10.37,2013-02-27 21:10:00,
2013-02-27 12:15:00,35.0,32.6,29.19,NNW,343,0.0,0.0,91,0.02,RA,,0.08,WeatherDisplay:10.37,2013-02-27 21:15:00,
2013-02-27 12:20:00,35.1,32.7,29.19,NNW,344,0.0,0.0,91,0.01,RA,,0.08,WeatherDisplay:10.37,2013-02-27 21:20:00,
2013-02-27 12:25:00,35.3,32.9,29.20,NNW,344,0.0,0.0,91,0.01,CLR,,0.08,WeatherDisplay:10.37,2013-02-27 21:25:00,
2013-02-27 12:30:00,35.6,33.2,29.20,NNW,344,0.0,0.0,91,0.01,CLR,,0.08,WeatherDisplay:10.37,2013-02-27 21:30:00,
2013-02-27 12:35:00,35.6,33.0,29.20,NNW,344,0.0,0.0,90,0.01,CLR,,0.08,WeatherDisplay:10.37,2013-02-27 21:35:00,
2013-02-27 12:40:00,35.6,33.0,29.20,NNW,343,0.0,0.0,90,0.01,CLR,,0.08,WeatherDisplay:10.37,2013-02-27 21:40:00,
2013-02-27 12:45:00,35.2,32.6,29.20,NNW,344,0.0,0.0,90,0.01,CLR,,0.08,WeatherDisplay:10.37,2013-02-27 21:45:00,
2013-02-27 12:50:00,34.9,32.3,29.21,NNW,344,0.0,0.0,90,0.01,CLR,,0.08,WeatherDisplay:10.37,2013-02-27 21:50:00,
2013-02-27 12:55:00,34.7,32.3,29.21,NNW,343,0.0,0.0,91,0.01,CLR,,0.08,WeatherDisplay:10.37,2013-02-27 21:55:00,
2013-02-27 13:00:00,34.6,32.2,29.22,NNW,344,0.0,0.0,91,0.01,CLR,,0.08,WeatherDisplay:10.37,2013-02-27 22:00:00,
2013-02-27 13:05:00,34.4,32.0,29.22,NNW,344,0.0,0.0,91,0.01,CLR,,0.08,WeatherDisplay:10.37,2013-02-27 22:05:00,
2013-02-27 13:10:00,34.4,32.0,29.22,NNW,343,0.0,0.0,91,0.02,RA,,0.09,WeatherDisplay:10.37,2013-02-27 22:10:00,
2013-02-27 13:15:00,34.4,32.0,29.22,NNW,344,0.0,0.0,91,0.01,RA,,0.09,WeatherDisplay:10.37,2013-02-27 22:15:00,
2013-02-27 13:20:00,34.4,32.3,29.22,NNW,344,0.0,0.0,92,0.01,,,0.09,WeatherDisplay:10.37,2013-02-27 22:20:00,
2013-02-27 13:25:00,34.4,32.3,29.22,NNW,344,0.0,0.0,92,0.01,CLR,,0.09,WeatherDisplay:10.37,2013-02-27 22:25:00,
2013-02-27 13:30:00,34.4,32.3,29.22,NNW,344,0.0,0.0,92,0.01,CLR,,0.09,WeatherDisplay:10.37,2013-02-27 22:30:00,
2013-02-27 13:35:00,34.4,32.3,29.22,NNW,344,0.0,0.0,92,0.01,CLR,,0.09,WeatherDisplay:10.37,2013-02-27 22:35:00,
2013-02-27 13:40:00,34.2,31.8,29.22,NNW,344,0.0,0.0,91,0.02,RA,,0.10,WeatherDisplay:10.37,2013-02-27 22:40:00,
2013-02-27 13:45:00,34.2,32.1,29.22,NNW,343,0.0,0.0,92,0.03,RA,,0.11,WeatherDisplay:10.37,2013-02-27 22:45:00,
2013-02-27 13:50:00,34.3,32.2,29.22,NNW,344,0.0,0.0,92,0.03,RA,,0.11,WeatherDisplay:10.37,2013-02-27 22:50:00,
2013-02-27 13:55:00,34.4,32.3,29.22,NNW,344,0.0,0.0,92,0.03,,,0.11,WeatherDisplay:10.37,2013-02-27 22:55:00,
2013-02-27 14:00:00,34.3,32.2,29.22,NNW,344,0.0,0.0,92,0.03,CLR,,0.11,WeatherDisplay:10.37,2013-02-27 23:00:00,
2013-02-27 14:05:00,34.1,32.0,29.22,NNW,344,0.0,0.0,92,0.03,CLR,,0.11,WeatherDisplay:10.37,2013-02-27 23:05:00,
2013-02-27 14:10:00,34.1,32.0,29.22,NNW,344,0.0,0.0,92,0.02,CLR,,0.11,WeatherDisplay:10.37,2013-02-27 23:10:00,
2013-02-27 14:15:00,34.1,32.0,29.22,NNW,343,0.0,0.0,92,0.02,CLR,,0.11,WeatherDisplay:10.37,2013-02-27 23:15:00,
2013-02-27 14:20:00,34.2,32.1,29.22,NNW,344,0.0,0.0,92,0.03,RA,,0.12,WeatherDisplay:10.37,2013-02-27 23:20:00,
2013-02-27 14:25:00,34.3,32.2,29.22,NNW,344,0.0,0.0,92,0.03,RA,,0.12,WeatherDisplay:10.37,2013-02-27 23:25:00,
2013-02-27 14:30:00,34.3,32.2,29.22,NNW,344,0.0,0.0,92,0.03,CLR,,0.12,WeatherDisplay:10.37,2013-02-27 23:30:00,
2013-02-27 14:35:00,34.4,32.3,29.22,NNW,344,0.0,0.0,92,0.03,CLR,,0.12,WeatherDisplay:10.37,2013-02-27 23:35:00,
2013-02-27 14:40:00,34.4,32.3,29.22,NNW,344,0.0,0.0,92,0.02,CLR,,0.12,WeatherDisplay:10.37,2013-02-27 23:40:00,
2013-02-27 14:45:00,34.4,32.3,29.22,NNW,344,0.0,0.0,92,0.01,CLR,,0.12,WeatherDisplay:10.37,2013-02-27 23:45:00,
2013-02-27 14:50:00,34.4,32.3,29.22,NNW,344,0.0,0.0,92,0.01,CLR,,0.12,WeatherDisplay:10.37,2013-02-27 23:50:00,
2013-02-27 14:55:00,34.4,32.3,29.22,NNW,344,0.0,0.0,92,0.01,CLR,,0.12,WeatherDisplay:10.37,2013-02-27 23:55:00,
2013-02-27 15:00:00,34.4,32.3,29.22,NNW,343,0.0,0.0,92,0.01,CLR,,0.12,WeatherDisplay:10.37,2013-02-28 00:00:00,
2013-02-27 15:05:00,34.4,32.3,29.22,NNW,343,0.0,0.0,92,0.01,CLR,,0.12,WeatherDisplay:10.37,2013-02-28 00:05:00,
2013-02-27 15:10:00,34.4,32.3,29.23,NNW,343,0.0,0.0,92,0.01,CLR,,0.12,WeatherDisplay:10.37,2013-02-28 00:10:00,
2013-02-27 15:15:00,34.4,32.3,29.23,NNW,343,0.0,0.0,92,0.01,CLR,,0.12,WeatherDisplay:10.37,2013-02-28 00:15:00,
2013-02-27 15:20:00,34.4,32.3,29.23,NNW,343,0.0,0.0,92,0.01,RA,,0.13,WeatherDisplay:10.37,2013-02-28 00:20:00,
2013-02-27 15:25:00,34.4,32.3,29.23,NNW,343,0.0,0.0,92,0.01,RA,,0.13,WeatherDisplay:10.37,2013-02-28 00:25:00,
2013-02-27 15:30:00,34.1,32.0,29.22,NNW,344,0.0,0.0,92,0.02,RA,,0.14,WeatherDisplay:10.37,2013-02-28 00:30:00,
2013-02-27 15:35:00,34.1,32.0,29.22,NNW,344,0.0,0.0,92,0.02,RA,,0.14,WeatherDisplay:10.37,2013-02-28 00:35:00,
2013-02-27 15:40:00,34.3,32.2,29.22,NNW,344,0.0,0.0,92,0.03,RA,,0.15,WeatherDisplay:10.37,2013-02-28 00:40:00,
2013-02-27 15:45:00,34.4,32.3,29.22,NNW,344,0.0,0.0,92,0.03,RA,,0.15,WeatherDisplay:10.37,2013-02-28 00:45:00,
2013-02-27 15:50:00,34.4,32.3,29.22,NNW,344,0.0,0.0,92,0.03,CLR,,0.15,WeatherDisplay:10.37,2013-02-28 00:50:00,
2013-02-27 15:55:00,34.6,32.5,29.23,NNW,344,0.0,0.0,92,0.03,CLR,,0.15,WeatherDisplay:10.37,2013-02-28 00:55:00,
2013-02-27 16:00:00,34.5,32.4,29.22,NNW,344,0.0,0.0,92,0.04,RA,,0.16,WeatherDisplay:10.37,2013-02-28 01:00:00,
2013-02-27 16:05:00,34.4,32.3,29.23,NNW,344,0.0,0.0,92,0.04,RA,,0.16,WeatherDisplay:10.37,2013-02-28 01:05:00,
2013-02-27 16:10:00,34.2,32.1,29.23,NNW,343,0.0,0.0,92,0.04,,,0.16,WeatherDisplay:10.37,2013-02-28 01:10:00,
2013-02-27 16:15:00,33.9,31.8,29.23,NNW,344,0.0,0.0,92,0.04,CLR,,0.16,WeatherDisplay:10.37,2013-02-28 01:15:00,
2013-02-27 16:20:00,33.7,31.6,29.22,NNW,344,0.0,0.0,92,0.03,CLR,,0.16,WeatherDisplay:10.37,2013-02-28 01:20:00,
2013-02-27 16:25:00,33.5,31.4,29.23,NNW,344,0.0,0.0,92,0.04,RA,,0.17,WeatherDisplay:10.37,2013-02-28 01:25:00,
2013-02-27 16:30:00,33.4,31.3,29.22,NNW,344,0.0,0.0,92,0.03,RA,,0.17,WeatherDisplay:10.37,2013-02-28 01:30:00,
2013-02-27 16:35:00,33.2,31.4,29.23,NNW,344,0.0,0.0,93,0.03,CLR,,0.17,WeatherDisplay:10.37,2013-02-28 01:35:00,
2013-02-27 16:40:00,33.0,31.2,29.23,NNW,344,0.0,0.0,93,0.02,CLR,,0.17,WeatherDisplay:10.37,2013-02-28 01:40:00,
2013-02-27 16:45:00,32.8,31.0,29.23,NNW,343,0.0,0.0,93,0.02,CLR,,0.17,WeatherDisplay:10.37,2013-02-28 01:45:00,
2013-02-27 16:50:00,32.7,30.9,29.23,NNW,343,0.0,0.0,93,0.02,CLR,,0.18,WeatherDisplay:10.37,2013-02-28 01:50:00,
2013-02-27 16:55:00,32.6,30.8,29.23,NNW,344,0.0,0.0,93,0.03,RA,,0.18,WeatherDisplay:10.37,2013-02-28 01:55:00,
2013-02-27 17:00:00,32.5,30.7,29.23,NNW,344,0.0,0.0,93,0.02,RA,,0.18,WeatherDisplay:10.37,2013-02-28 02:00:00,
2013-02-27 17:05:00,32.4,30.6,29.23,NNW,344,0.0,0.0,93,0.02,CLR,,0.18,WeatherDisplay:10.37,2013-02-28 02:05:00,
2013-02-27 17:10:00,32.4,30.6,29.23,NNW,344,0.0,0.0,93,0.02,CLR,,0.18,WeatherDisplay:10.37,2013-02-28 02:10:00,
2013-02-27 17:15:00,32.4,30.6,29.23,NNW,344,0.0,0.0,93,0.02,CLR,,0.18,WeatherDisplay:10.37,2013-02-28 02:15:00,
2013-02-27 17:20:00,32.4,30.9,29.23,NNW,344,0.0,0.0,94,0.02,CLR,,0.18,WeatherDisplay:10.37,2013-02-28 02:20:00,
2013-02-27 17:25:00,32.5,31.0,29.23,NNW,344,0.0,0.0,94,0.01,CLR,,0.18,WeatherDisplay:10.37,2013-02-28 02:25:00,
2013-02-27 17:30:00,32.4,30.9,29.24,NNW,344,0.0,0.0,94,0.01,CLR,,0.18,WeatherDisplay:10.37,2013-02-28 02:30:00,
2013-02-27 17:35:00,32.4,30.9,29.23,NNW,344,0.0,0.0,94,0.01,CLR,,0.18,WeatherDisplay:10.37,2013-02-28 02:35:00,
2013-02-27 17:40:00,32.5,31.0,29.23,NNW,344,0.0,0.0,94,0.01,CLR,,0.18,WeatherDisplay:10.37,2013-02-28 02:40:00,
2013-02-27 17:45:00,32.6,31.1,29.23,NNW,344,0.0,0.0,94,0.02,RA,,0.19,WeatherDisplay:10.37,2013-02-28 02:45:00,
2013-02-27 17:50:00,32.9,31.4,29.23,NNW,344,0.0,0.0,94,0.02,RA,,0.19,WeatherDisplay:10.37,2013-02-28 02:50:00,
2013-02-27 17:55:00,33.0,31.5,29.23,NNW,344,0.0,0.0,94,0.02,RA,,0.20,WeatherDisplay:10.37,2013-02-28 02:55:00,
2013-02-27 18:00:00,33.0,31.5,29.24,NNW,344,0.0,0.0,94,0.02,RA,,0.20,WeatherDisplay:10.37,2013-02-28 03:00:00,
2013-02-27 18:05:00,32.9,31.4,29.24,NNW,344,0.0,0.0,94,0.03,RA,,0.21,WeatherDisplay:10.37,2013-02-28 03:05:00,
2013-02-27 18:10:00,32.7,30.9,29.24,NNW,344,0.0,0.0,93,0.03,RA,,0.21,WeatherDisplay:10.37,2013-02-28 03:10:00,
2013-02-27 18:15:00,32.5,30.7,29.24,NNW,344,0.0,0.0,93,0.03,,,0.21,WeatherDisplay:10.37,2013-02-28 03:15:00,
2013-02-27 18:20:00,32.3,30.5,29.24,NNW,344,0.0,0.0,93,0.03,CLR,,0.21,WeatherDisplay:10.37,2013-02-28 03:20:00,
2013-02-27 18:25:00,32.2,30.7,29.24,NNW,344,0.0,0.0,94,0.03,CLR,,0.21,WeatherDisplay:10.37,2013-02-28 03:25:00,
2013-02-27 18:30:00,32.1,30.6,29.24,NNW,344,0.0,0.0,94,0.04,RA,,0.22,WeatherDisplay:10.37,2013-02-28 03:30:00,
2013-02-27 18:35:00,32.1,30.6,29.24,NNW,344,0.0,0.0,94,0.04,RA,,0.22,WeatherDisplay:10.37,2013-02-28 03:35:00,
2013-02-27 18:40:00,32.0,30.5,29.24,NNW,344,0.0,0.0,94,0.04,CLR,,0.22,WeatherDisplay:10.37,2013-02-28 03:40:00,
2013-02-27 18:45:00,31.9,30.4,29.24,NNW,344,0.0,0.0,94,0.03,CLR,,0.22,WeatherDisplay:10.37,2013-02-28 03:45:00,
2013-02-27 18:50:00,31.9,30.4,29.24,NNW,344,0.0,0.0,94,0.03,CLR,,0.22,WeatherDisplay:10.37,2013-02-28 03:50:00,
2013-02-27 18:55:00,31.9,30.4,29.24,NNW,344,0.0,0.0,94,0.02,CLR,,0.22,WeatherDisplay:10.37,2013-02-28 03:55:00,
2013-02-27 19:00:00,31.9,30.4,29.24,NNW,344,0.0,0.0,94,0.02,CLR,,0.22,WeatherDisplay:10.37,2013-02-28 04:00:00,
2013-02-27 19:05:00,31.8,30.3,29.24,NNW,344,0.0,0.0,94,0.02,RA,,0.23,WeatherDisplay:10.37,2013-02-28 04:05:00,
2013-02-27 19:10:00,31.8,30.3,29.24,NNW,344,0.0,0.0,94,0.02,RA,,0.23,WeatherDisplay:10.37,2013-02-28 04:10:00,
2013-02-27 19:15:00,31.8,30.3,29.25,NNW,344,0.0,0.0,94,0.02,,,0.23,WeatherDisplay:10.37,2013-02-28 04:15:00,
2013-02-27 19:20:00,31.9,30.4,29.25,NNW,344,0.0,0.0,94,0.02,CLR,,0.23,WeatherDisplay:10.37,2013-02-28 04:20:00,
2013-02-27 19:25:00,31.9,30.4,29.25,NNW,344,0.0,0.0,94,0.02,CLR,,0.23,WeatherDisplay:10.37,2013-02-28 04:25:00,
2013-02-27 19:30:00,31.9,30.4,29.25,NNW,344,0.0,0.0,94,0.01,CLR,,0.23,WeatherDisplay:10.37,2013-02-28 04:30:00,
2013-02-27 19:35:00,31.9,30.4,29.25,NNW,344,0.0,0.0,94,0.01,CLR,,0.23,WeatherDisplay:10.37,2013-02-28 04:35:00,
2013-02-27 19:40:00,31.9,30.4,29.25,NNW,344,0.0,0.0,94,0.01,CLR,,0.23,WeatherDisplay:10.37,2013-02-28 04:40:00,
2013-02-27 19:45:00,31.9,30.6,29.25,NNW,344,0.0,0.0,95,0.01,CLR,,0.23,WeatherDisplay:10.37,2013-02-28 04:45:00,
2013-02-27 19:50:00,31.9,30.6,29.25,NNW,344,0.0,0.0,95,0.01,CLR,,0.23,WeatherDisplay:10.37,2013-02-28 04:50:00,
2013-02-27 19:55:00,31.9,30.6,29.25,NNW,344,0.0,0.0,95,0.01,CLR,,0.23,WeatherDisplay:10.37,2013-02-28 04:55:00,
2013-02-27 20:00:00,31.8,30.5,29.25,NNW,344,0.0,0.0,95,0.01,CLR,,0.23,WeatherDisplay:10.37,2013-02-28 05:00:00,
2013-02-27 20:05:00,31.8,30.5,29.25,NNW,344,0.0,0.0,95,0.00,CLR,,0.23,WeatherDisplay:10.37,2013-02-28 05:05:00,
2013-02-27 20:10:00,31.8,30.5,29.25,NNW,344,0.0,0.0,95,0.00,CLR,,0.23,WeatherDisplay:10.37,2013-02-28 05:10:00,
2013-02-27 20:15:00,31.8,30.5,29.25,NNW,344,0.0,0.0,95,0.00,CLR,,0.23,WeatherDisplay:10.37,2013-02-28 05:15:00,
2013-02-27 20:20:00,31.8,30.5,29.25,NNW,344,0.0,0.0,95,0.00,CLR,,0.23,WeatherDisplay:10.37,2013-02-28 05:20:00,
2013-02-27 20:25:00,31.9,30.4,29.25,NNW,344,0.0,0.0,94,0.00,CLR,,0.23,WeatherDisplay:10.37,2013-02-28 05:25:00,
2013-02-27 20:30:00,31.9,30.4,29.25,NNW,344,0.0,0.0,94,0.00,CLR,,0.23,WeatherDisplay:10.37,2013-02-28 05:30:00,
2013-02-27 20:35:00,31.8,30.5,29.25,NNW,344,0.0,0.0,95,0.00,CLR,,0.23,WeatherDisplay:10.37,2013-02-28 05:35:00,
2013-02-27 20:40:00,31.7,30.2,29.25,NNW,344,0.0,0.0,94,0.00,CLR,,0.23,WeatherDisplay:10.37,2013-02-28 05:40:00,
2013-02-27 20:45:00,31.7,30.2,29.25,NNW,344,0.0,0.0,94,0.00,CLR,,0.23,WeatherDisplay:10.37,2013-02-28 05:45:00,
2013-02-27 20:50:00,31.6,30.3,29.25,NNW,344,0.0,0.0,95,0.00,CLR,,0.23,WeatherDisplay:10.37,2013-02-28 05:50:00,
2013-02-27 20:55:00,31.6,30.3,29.25,NNW,344,0.0,0.0,95,0.00,CLR,,0.23,WeatherDisplay:10.37,2013-02-28 05:55:00,
2013-02-27 21:00:00,31.5,30.2,29.25,NNW,344,0.0,0.0,95,0.00,CLR,,0.23,WeatherDisplay:10.37,2013-02-28 06:00:00,
2013-02-27 21:05:00,31.5,30.2,29.26,NNW,344,0.0,0.0,95,0.00,CLR,,0.23,WeatherDisplay:10.37,2013-02-28 06:05:00,
2013-02-27 21:10:00,31.6,30.3,29.26,NNW,344,0.0,0.0,95,0.00,CLR,,0.23,WeatherDisplay:10.37,2013-02-28 06:10:00,
2013-02-27 21:15:00,31.7,30.4,29.26,NNW,344,0.0,0.0,95,0.01,RA,,0.24,WeatherDisplay:10.37,2013-02-28 06:15:00,
2013-02-27 21:20:00,31.7,30.4,29.25,NNW,344,0.0,0.0,95,0.01,RA,,0.24,WeatherDisplay:10.37,2013-02-28 06:20:00,
2013-02-27 21:25:00,31.7,30.4,29.25,NNW,344,0.0,0.0,95,0.01,CLR,,0.24,WeatherDisplay:10.37,2013-02-28 06:25:00,
2013-02-27 21:30:00,31.6,30.3,29.25,NNW,344,0.0,0.0,95,0.01,CLR,,0.24,WeatherDisplay:10.37,2013-02-28 06:30:00,
2013-02-27 21:35:00,31.6,30.3,29.25,NNW,344,0.0,0.0,95,0.01,CLR,,0.24,WeatherDisplay:10.37,2013-02-28 06:35:00,
2013-02-27 21:40:00,31.6,30.3,29.25,NNW,344,0.0,0.0,95,0.01,CLR,,0.24,WeatherDisplay:10.37,2013-02-28 06:40:00,
2013-02-27 21:45:00,31.5,30.2,29.25,NNW,344,0.0,0.0,95,0.01,CLR,,0.24,WeatherDisplay:10.37,2013-02-28 06:45:00,
2013-02-27 21:50:00,31.5,30.2,29.25,NNW,344,0.0,0.0,95,0.01,CLR,,0.24,WeatherDisplay:10.37,2013-02-28 06:50:00,
2013-02-27 21:55:00,31.5,30.2,29.25,NNW,344,0.0,0.0,95,0.01,CLR,,0.24,WeatherDisplay:10.37,2013-02-28 06:55:00,
2013-02-27 22:00:00,31.5,30.2,29.25,NNW,344,0.0,0.0,95,0.01,CLR,,0.24,WeatherDisplay:10.37,2013-02-28 07:00:00,
2013-02-27 22:05:00,31.4,30.1,29.26,NNW,344,0.0,0.0,95,0.01,CLR,,0.24,WeatherDisplay:10.37,2013-02-28 07:05:00,
2013-02-27 22:10:00,31.5,30.2,29.26,NNW,344,0.0,0.0,95,0.01,CLR,,0.24,WeatherDisplay:10.37,2013-02-28 07:10:00,
2013-02-27 22:15:00,31.5,30.2,29.26,NNW,344,0.0,0.0,95,0.00,CLR,,0.24,WeatherDisplay:10.37,2013-02-28 07:15:00,
2013-02-27 22:20:00,31.5,30.2,29.26,NNW,344,0.0,0.0,95,0.00,CLR,,0.24,WeatherDisplay:10.37,2013-02-28 07:20:00,
2013-02-27 22:25:00,31.5,30.2,29.26,NNW,344,0.0,0.0,95,0.00,CLR,,0.24,WeatherDisplay:10.37,2013-02-28 07:25:00,
2013-02-27 22:30:00,31.5,30.2,29.26,NNW,344,0.0,0.0,95,0.00,CLR,,0.24,WeatherDisplay:10.37,2013-02-28 07:30:00,
2013-02-27 22:35:00,31.5,30.2,29.26,NNW,344,0.0,0.0,95,0.00,CLR,,0.24,WeatherDisplay:10.37,2013-02-28 07:35:00,
2013-02-27 22:40:00,31.6,30.3,29.26,NNW,344,0.0,0.0,95,0.00,CLR,,0.24,WeatherDisplay:10.37,2013-02-28 07:40:00,
2013-02-27 22:45:00,31.6,30.3,29.26,NNW,344,0.0,0.0,95,0.00,CLR,,0.24,WeatherDisplay:10.37,2013-02-28 07:45:00,
2013-02-27 22:50:00,31.6,30.3,29.26,NNW,344,0.0,0.0,95,0.00,CLR,,0.24,WeatherDisplay:10.37,2013-02-28 07:50:00,
2013-02-27 22:55:00,31.5,30.2,29.26,NNW,344,0.0,0.0,95,0.00,CLR,,0.24,WeatherDisplay:10.37,2013-02-28 07:55:00,
2013-02-27 23:00:00,31.5,30.2,29.26,NNW,344,0.0,0.0,95,0.00,CLR,,0.24,WeatherDisplay:10.37,2013-02-28 08:00:00,
2013-02-27 23:05:00,31.5,30.2,29.26,NNW,344,0.0,0.0,95,0.00,CLR,,0.24,WeatherDisplay:10.37,2013-02-28 08:05:00,
2013-02-27 23:10:00,31.5,30.2,29.26,NNW,344,0.0,0.0,95,0.00,CLR,,0.24,WeatherDisplay:10.37,2013-02-28 08:10:00,
2013-02-27 23:15:00,31.5,30.2,29.26,NNW,344,0.0,0.0,95,0.00,CLR,,0.24,WeatherDisplay:10.37,2013-02-28 08:15:00,
2013-02-27 23:20:00,31.5,30.2,29.26,NNW,344,0.0,0.0,95,0.00,CLR,,0.24,WeatherDisplay:10.37,2013-02-28 08:20:00,
2013-02-27 23:25:00,31.5,30.2,29.26,NNW,344,0.0,0.0,95,0.00,CLR,,0.24,WeatherDisplay:10.37,2013-02-28 08:25:00,
2013-02-27 23:30:00,31.5,30.2,29.26,NNW,344,0.0,0.0,95,0.00,CLR,,0.24,WeatherDisplay:10.37,2013-02-28 08:30:00,
2013-02-27 23:35:00,31.5,30.2,29.26,NNW,344,0.0,0.0,95,0.00,CLR,,0.24,WeatherDisplay:10.37,2013-02-28 08:35:00,
2013-02-27 23:40:00,31.5,30.2,29.26,NNW,344,0.0,0.0,95,0.00,CLR,,0.24,WeatherDisplay:10.37,2013-02-28 08:40:00,
2013-02-27 23:45:00,31.5,30.2,29.26,NNW,344,0.0,0.0,95,0.00,CLR,,0.24,WeatherDisplay:10.37,2013-02-28 08:45:00,
2013-02-27 23:50:00,31.5,30.2,29.26,NNW,344,0.0,0.0,95,0.00,CLR,,0.24,WeatherDisplay:10.37,2013-02-28 08:50:00,
2013-02-27 23:55:00,31.5,30.2,29.26,NNW,344,0.0,0.0,95,0.00,CLR,,0.24,WeatherDisplay:10.37,2013-02-28 08:55:00,